Weather History for Superior, WI

Change the Weather History Date:

Tuesday, November 20, 2012

  Actual Average Record
Temperature  
Mean Temperature 33 °F -  
Max Temperature 44 °F 36 °F 58 °F (1982)
Min Temperature 22 °F 22 °F 3 °F (1984)
Degree Days  
Heating Degree Days 32    
Moisture  
Dew Point 31 °F    
Average Humidity 90    
Maximum Humidity 100    
Minimum Humidity 58    
Precipitation  
Precipitation 0.00 in - - ()
Sea Level Pressure  
Sea Level Pressure 30.11 in    
Wind  
Wind Speed 1 mph (NE)    
Max Wind Speed 5 mph    
Max Gust Speed -    
Visibility 5 miles    
Events Fog    
Averages and records for this station are not official NWS values.
T = Trace of Precipitation, MM = Missing Value Source: NWS Daily Summary

Daily Weather History Graph

Daily Weather History Graph

Search for Another Location

Airport:

Trip Planner

Search our weather history database for the weather conditions in past years. The results will help you decide how hot, cold, wet, or windy it might be!

Date:

Astronomy

Nov. 20, 2012 Rise Set
Actual Time 7:18 AM CST 4:29 PM CST
Civil Twilight 6:45 AM CST 5:02 PM CST
Nautical Twilight 6:07 AM CST 5:39 PM CST
Astronomical Twilight 5:31 AM CST 6:15 PM CST
Moon 12:40 PM CST (11/20) No Moon Set
Length of Visible Light 10h 17m
Length of Day
9h 10m
First Quarter, 51% of the Moon is Illuminated
Nov 20
First Quarter
Nov 28
Full
Dec 6
Last Quarter
Dec 13
New
Dec 19
First Quarter

Hourly Weather History & Observations

Time (CST) Temp. Windchill Dew Point Humidity Pressure Visibility Wind Dir Wind Speed Gust Speed Precip Events Conditions
12:15 AM 29.8 °F - 29.8 °F 100% 30.07 in 5.0 mi Calm Calm - N/A   Clear
12:35 AM 30.0 °F - 28.8 °F 95% 30.07 in 7.0 mi Calm Calm - N/A   Clear
12:55 AM 28.0 °F 24.2 °F 27.5 °F 98% 30.07 in 5.0 mi South 3.5 mph - N/A   Clear
1:15 AM 29.3 °F - 28.8 °F 98% 30.07 in 5.0 mi Calm Calm - N/A   Clear
1:35 AM 28.8 °F - 28.6 °F 99% 30.08 in 4.0 mi Calm Calm - N/A   Clear
1:55 AM 26.6 °F - 26.4 °F 99% 30.10 in 2.5 mi Calm Calm - N/A   Clear
2:15 AM 25.5 °F - 24.8 °F 97% 30.11 in 4.0 mi Calm Calm - N/A   Clear
2:35 AM 33.1 °F - 30.7 °F 91% 30.11 in 10.0 mi Calm Calm - N/A   Clear
6:15 AM 23.9 °F 18.0 °F 23.9 °F 100% 30.11 in 2.5 mi West 4.6 mph - N/A   Clear
6:35 AM 25.0 °F - 25.0 °F 100% 30.12 in 2.5 mi Calm Calm - N/A   Clear
6:55 AM 25.3 °F 21.1 °F 25.3 °F 100% 30.12 in 2.5 mi West 3.5 mph - N/A   Clear
7:15 AM 22.5 °F 16.3 °F 22.1 °F 99% 30.14 in 0.2 mi South 4.6 mph - N/A Fog Light Freezing Fog
7:35 AM 22.8 °F 18.2 °F 22.6 °F 99% 30.15 in 1.5 mi South 3.5 mph - N/A   Mist
7:55 AM 22.6 °F 18.0 °F 22.3 °F 99% 30.16 in 2.0 mi SSW 3.5 mph - N/A   Clear
8:15 AM 25.5 °F - 25.0 °F 98% 30.16 in 3.0 mi Calm Calm - N/A   Clear
8:35 AM 28.6 °F - 28.2 °F 99% 30.16 in 3.0 mi Calm Calm - N/A   Clear
8:55 AM 30.2 °F - 29.7 °F 98% 30.15 in 4.0 mi Calm Calm - N/A   Clear
9:15 AM 31.1 °F - 30.0 °F 96% 30.15 in 5.0 mi Calm Calm - N/A   Clear
9:35 AM 32.0 °F - 30.4 °F 94% 30.15 in 7.0 mi Calm Calm - N/A   Clear
9:55 AM 32.9 °F - 30.6 °F 91% 30.15 in 10.0 mi Calm Calm - N/A   Clear
10:15 AM 34.0 °F - 30.9 °F 89% 30.17 in 10.0 mi Calm Calm - N/A   Clear
10:35 AM 35.1 °F - 30.6 °F 84% 30.16 in 10.0 mi Calm Calm - N/A   Clear
10:55 AM 36.7 °F - 31.3 °F 81% 30.16 in 10.0 mi Calm Calm - N/A   Clear
11:15 AM 37.8 °F - 31.1 °F 77% 30.16 in 10.0 mi Calm Calm - N/A   Clear
11:35 AM 38.3 °F - 30.9 °F 75% 30.15 in 10.0 mi Calm Calm - N/A   Clear
11:55 AM 39.6 °F 37.4 °F 31.1 °F 72% 30.15 in 10.0 mi West 3.5 mph - N/A   Clear
12:15 PM 41.0 °F - 30.9 °F 67% 30.15 in 10.0 mi Calm Calm - N/A   Clear
12:35 PM 41.5 °F - 30.7 °F 65% 30.14 in 10.0 mi Calm Calm - N/A   Clear
12:55 PM 43.3 °F 41.7 °F 30.9 °F 62% 30.12 in 10.0 mi South 3.5 mph - N/A   Clear
1:15 PM 44.4 °F - 30.7 °F 59% 30.12 in 10.0 mi Calm Calm - N/A   Clear
1:35 PM 44.4 °F - 30.4 °F 58% 30.12 in 10.0 mi Calm Calm - N/A   Clear
1:55 PM 44.4 °F - 30.4 °F 58% 30.12 in 10.0 mi Calm Calm - N/A   Clear
2:15 PM 43.9 °F 42.3 °F 31.6 °F 62% 30.11 in 10.0 mi NE 3.5 mph - N/A   Clear
2:35 PM 43.2 °F 40.5 °F 32.0 °F 65% 30.11 in 10.0 mi NE 4.6 mph - N/A   Clear
2:55 PM 42.1 °F 39.2 °F 32.0 °F 67% 30.10 in 10.0 mi ENE 4.6 mph - N/A   Clear
3:15 PM 41.7 °F 38.8 °F 32.2 °F 69% 30.09 in 10.0 mi ENE 4.6 mph - N/A   Clear
3:35 PM 39.7 °F 37.6 °F 32.4 °F 75% 30.10 in 10.0 mi ENE 3.5 mph - N/A   Clear
3:55 PM 38.7 °F 36.3 °F 32.7 °F 79% 30.10 in 10.0 mi ENE 3.5 mph - N/A   Clear
4:15 PM 36.9 °F 34.3 °F 32.9 °F 86% 30.10 in 10.0 mi NE 3.5 mph - N/A   Clear
4:35 PM 35.2 °F 32.4 °F 33.3 °F 92% 30.09 in 10.0 mi ENE 3.5 mph - N/A   Clear
4:55 PM 33.3 °F 30.2 °F 32.2 °F 96% 30.10 in 7.0 mi NNE 3.5 mph - N/A   Clear
5:15 PM 33.6 °F 29.4 °F 32.7 °F 96% 30.11 in 5.0 mi NNE 4.6 mph - N/A   Clear
5:35 PM 33.1 °F 30.0 °F 32.5 °F 98% 30.11 in 5.0 mi NE 3.5 mph - N/A   Clear
5:55 PM 32.4 °F - 32.4 °F 100% 30.09 in 2.0 mi Calm Calm - N/A   Clear
6:15 PM 32.9 °F - 32.9 °F 100% 30.09 in 5.0 mi Calm Calm - N/A   Clear
6:35 PM 30.0 °F - 30.0 °F 100% 30.08 in 0.2 mi Calm Calm - N/A Fog Light Freezing Fog
6:55 PM 29.3 °F - 29.3 °F 100% 30.08 in 0.2 mi Calm Calm - N/A Fog Light Freezing Fog
7:15 PM 31.1 °F 26.4 °F 31.1 °F 100% 30.08 in 2.5 mi North 4.6 mph - N/A   Clear
7:35 PM 32.5 °F - 32.2 °F 99% 30.08 in 2.0 mi Calm Calm - N/A   Clear
7:55 PM 32.5 °F 28.1 °F 32.5 °F 100% 30.08 in 0.8 mi North 4.6 mph - N/A   Overcast
8:15 PM 34.5 °F 31.6 °F 34.5 °F 100% 30.08 in 1.8 mi NNE 3.5 mph - N/A   Overcast
8:35 PM 35.1 °F 32.2 °F 35.1 °F 100% 30.08 in 0.2 mi North 3.5 mph - N/A Fog Fog
8:55 PM 35.4 °F 32.6 °F 35.4 °F 100% 30.07 in 0.2 mi NNE 3.5 mph - N/A Fog Fog
9:15 PM 35.6 °F 32.8 °F 35.6 °F 100% 30.07 in 0.2 mi NE 3.5 mph - N/A Fog Fog
9:35 PM 35.6 °F - 35.6 °F 100% 30.08 in 0.2 mi Calm Calm - N/A Fog Fog
9:55 PM 35.8 °F - 35.8 °F 100% 30.08 in 0.2 mi Calm Calm - N/A Fog Fog
10:15 PM 36.0 °F 33.3 °F 36.0 °F 100% 30.07 in 0.5 mi ENE 3.5 mph - N/A Fog Fog
10:35 PM 36.0 °F 33.3 °F 36.0 °F 100% 30.07 in 1.2 mi NNE 3.5 mph - N/A   Overcast
10:55 PM 36.0 °F 32.1 °F 36.0 °F 100% 30.07 in 1.0 mi NE 4.6 mph - N/A   Overcast
11:15 PM 36.1 °F 33.5 °F 36.1 °F 100% 30.06 in 2.0 mi NNE 3.5 mph - N/A   Overcast
11:35 PM 35.2 °F - 35.2 °F 100% 30.05 in 1.2 mi Calm Calm - N/A   Overcast
11:55 PM 35.6 °F - 35.6 °F 100% 30.04 in 0.5 mi Calm Calm - N/A Fog Fog